START_TIME,STEP,MOV.,E45,t_acc.,ALAR?,t_acc.,A12,t_acc.,A24,t_acc.
1979-07-02 00:00:27.230 ,0,0,2.,4.8,136.,4.8,0.,4.8,0.,4.8
1979-07-02 00:00:32.030 ,0,0,0.,4.8,152.,4.8,0.,4.8,0.,4.8
1979-07-02 00:00:36.830 ,0,0,0.,4.8,152.,4.8,0.,4.8,0.,4.8
1979-07-02 00:00:41.630 ,0,0,0.,4.8,152.,4.8,0.,4.8,0.,4.8
1979-07-02 00:00:46.430 ,0,0,0.,4.8,144.,4.8,0.,4.8,0.,4.8
1979-07-02 00:00:51.230 ,1,0,2.,4.8,148.,4.8,0.,4.8,0.,4.8
1979-07-02 00:00:56.030 ,1,0,0.,4.8,144.,4.8,0.,4.8,0.,4.8
1979-07-02 00:01:00.830 ,1,0,0.,4.8,160.,4.8,0.,4.8,0.,4.8
1979-07-02 00:01:05.630 ,1,0,1.,4.8,152.,4.8,0.,4.8,0.,4.8
1979-07-02 00:01:10.430 ,1,0,4.,4.8,168.,4.8,0.,4.8,0.,4.8
1979-07-02 00:01:15.230 ,1,0,1.,4.8,152.,4.8,0.,4.8,0.,4.8
1979-07-02 00:01:20.030 ,1,0,2.,4.8,136.,4.8,0.,4.8,0.,4.8
1979-07-02 00:01:24.830 ,1,0,0.,4.8,148.,4.8,0.,4.8,0.,4.8
1979-07-02 00:01:29.630 ,1,0,1.,4.8,168.,4.8,0.,4.8,0.,4.8
1979-07-02 00:01:34.430 ,1,0,2.,4.8,160.,4.8,0.,4.8,0.,4.8
1979-07-02 00:01:39.230 ,2,0,0.,4.8,136.,4.8,0.,4.8,0.,4.8
1979-07-02 00:01:44.030 ,2,0,1.,4.8,152.,4.8,0.,4.8,0.,4.8
1979-07-02 00:01:48.830 ,2,0,2.,4.8,140.,4.8,0.,4.8,0.,4.8
1979-07-02 00:01:53.630 ,2,0,3.,4.8,148.,4.8,0.,4.8,0.,4.8
1979-07-02 00:01:58.430 ,2,0,2.,4.8,132.,4.8,0.,4.8,0.,4.8
1979-07-02 00:02:03.230 ,2,0,2.,4.8,126.,4.8,0.,4.8,0.,4.8
1979-07-02 00:02:08.030 ,2,0,3.,4.8,136.,4.8,0.,4.8,0.,4.8
1979-07-02 00:02:12.830 ,2,0,0.,4.8,140.,4.8,0.,4.8,0.,4.8
1979-07-02 00:02:17.630 ,2,0,2.,4.8,140.,4.8,0.,4.8,0.,4.8
1979-07-02 00:02:22.430 ,2,0,1.,4.8,136.,4.8,0.,4.8,0.,4.8
1979-07-02 00:02:27.230 ,3,0,1.,4.8,132.,4.8,0.,4.8,0.,4.8
1979-07-02 00:02:32.030 ,3,0,0.,4.8,144.,4.8,0.,4.8,0.,4.8
1979-07-02 00:02:36.830 ,3,0,2.,4.8,152.,4.8,0.,4.8,0.,4.8
1979-07-02 00:02:41.630 ,3,0,2.,4.8,164.,4.8,0.,4.8,0.,4.8
1979-07-02 00:02:46.430 ,3,0,1.,4.8,164.,4.8,0.,4.8,0.,4.8
1979-07-02 00:02:51.230 ,3,0,1.,4.8,176.,4.8,0.,4.8,0.,4.8
1979-07-02 00:02:56.030 ,3,0,1.,4.8,176.,4.8,0.,4.8,0.,4.8
1979-07-02 00:03:00.830 ,3,0,1.,4.8,152.,4.8,0.,4.8,0.,4.8
1979-07-02 00:03:05.630 ,3,0,3.,4.8,152.,4.8,0.,4.8,0.,4.8
1979-07-02 00:03:10.430 ,3,0,2.,4.8,152.,4.8,0.,4.8,0.,4.8
1979-07-02 00:03:15.230 ,4,0,1.,4.8,148.,4.8,0.,4.8,0.,4.8
1979-07-02 00:03:20.030 ,4,0,0.,4.8,156.,4.8,0.,4.8,0.,4.8
1979-07-02 00:03:24.830 ,4,0,0.,4.8,152.,4.8,0.,4.8,0.,4.8
1979-07-02 00:03:29.630 ,4,0,0.,4.8,148.,4.8,0.,4.8,0.,4.8
1979-07-02 00:03:34.430 ,4,0,3.,4.8,148.,4.8,0.,4.8,0.,4.8
1979-07-02 00:03:39.230 ,4,0,1.,4.8,140.,4.8,0.,4.8,0.,4.8
1979-07-02 00:03:44.030 ,4,0,3.,4.8,160.,4.8,0.,4.8,0.,4.8
1979-07-02 00:03:48.830 ,4,0,2.,4.8,152.,4.8,0.,4.8,0.,4.8
1979-07-02 00:03:53.630 ,4,0,1.,4.8,160.,4.8,0.,4.8,0.,4.8
1979-07-02 00:03:58.430 ,4,0,0.,4.8,140.,4.8,0.,4.8,0.,4.8
1979-07-02 00:04:03.230 ,5,0,2.,4.8,156.,4.8,0.,4.8,0.,4.8
1979-07-02 00:04:08.030 ,5,0,0.,4.8,140.,4.8,0.,4.8,0.,4.8
1979-07-02 00:04:12.830 ,5,0,0.,4.8,152.,4.8,0.,4.8,0.,4.8
1979-07-02 00:04:17.630 ,5,0,1.,4.8,148.,4.8,0.,4.8,0.,4.8
1979-07-02 00:04:22.430 ,5,0,3.,4.8,156.,4.8,0.,4.8,0.,4.8
1979-07-02 00:04:27.230 ,5,0,1.,4.8,156.,4.8,0.,4.8,0.,4.8
1979-07-02 00:04:32.030 ,5,0,1.,4.8,164.,4.8,0.,4.8,0.,4.8
1979-07-02 00:04:36.830 ,5,0,1.,4.8,160.,4.8,0.,4.8,0.,4.8
1979-07-02 00:04:41.630 ,5,0,2.,4.8,136.,4.8,0.,4.8,0.,4.8
1979-07-02 00:04:46.430 ,5,0,3.,4.8,144.,4.8,0.,4.8,0.,4.8
1979-07-02 00:04:51.230 ,6,0,0.,4.8,160.,4.8,0.,4.8,0.,4.8
1979-07-02 00:04:56.030 ,6,0,2.,4.8,156.,4.8,0.,4.8,0.,4.8
1979-07-02 00:05:00.830 ,6,0,2.,4.8,128.,4.8,0.,4.8,0.,4.8
1979-07-02 00:05:05.630 ,6,0,2.,4.8,152.,4.8,0.,4.8,0.,4.8
1979-07-02 00:05:10.430 ,6,0,3.,4.8,160.,4.8,0.,4.8,0.,4.8
1979-07-02 00:05:15.230 ,6,0,2.,4.8,160.,4.8,0.,4.8,0.,4.8
1979-07-02 00:05:20.030 ,6,0,4.,4.8,156.,4.8,0.,4.8,0.,4.8
1979-07-02 00:05:24.830 ,6,0,3.,4.8,152.,4.8,0.,4.8,0.,4.8
1979-07-02 00:05:29.630 ,6,0,2.,4.8,140.,4.8,0.,4.8,0.,4.8
1979-07-02 00:05:34.430 ,6,0,0.,4.8,152.,4.8,0.,4.8,0.,4.8
1979-07-02 00:05:39.230 ,7,0,1.,4.8,152.,4.8,0.,4.8,0.,4.8
1979-07-02 00:05:44.030 ,7,0,4.,4.8,144.,4.8,0.,4.8,0.,4.8
1979-07-02 00:05:48.830 ,7,0,1.,4.8,136.,4.8,0.,4.8,0.,4.8
1979-07-02 00:05:53.630 ,7,0,2.,4.8,156.,4.8,0.,4.8,0.,4.8
1979-07-02 00:05:58.430 ,7,0,0.,4.8,160.,4.8,0.,4.8,0.,4.8
1979-07-02 00:06:03.230 ,7,0,0.,4.8,160.,4.8,0.,4.8,0.,4.8
1979-07-02 00:06:08.030 ,7,0,3.,4.8,152.,4.8,0.,4.8,0.,4.8
1979-07-02 00:06:12.830 ,7,0,1.,4.8,140.,4.8,0.,4.8,0.,4.8
1979-07-02 00:06:17.630 ,7,0,0.,4.8,140.,4.8,0.,4.8,0.,4.8
1979-07-02 00:06:22.430 ,7,0,1.,4.8,156.,4.8,0.,4.8,0.,4.8
1979-07-02 00:06:27.230 ,7,0,1.,4.8,148.,4.8,0.,4.8,0.,4.8
1979-07-02 00:06:32.030 ,7,0,3.,4.8,164.,4.8,0.,4.8,0.,4.8
1979-07-02 00:06:36.830 ,7,0,3.,4.8,132.,4.8,0.,4.8,0.,4.8
1979-07-02 00:06:41.630 ,7,0,4.,4.8,140.,4.8,0.,4.8,0.,4.8
1979-07-02 00:06:46.430 ,7,0,2.,4.8,126.,4.8,0.,4.8,0.,4.8
1979-07-02 00:06:51.230 ,7,0,1.,4.8,128.,4.8,0.,4.8,0.,4.8
1979-07-02 00:06:56.030 ,7,0,1.,4.8,132.,4.8,0.,4.8,0.,4.8
1979-07-02 00:07:00.830 ,7,0,0.,4.8,132.,4.8,0.,4.8,0.,4.8
1979-07-02 00:07:05.630 ,7,0,0.,4.8,156.,4.8,0.,4.8,0.,4.8
1979-07-02 00:07:10.430 ,7,0,4.,4.8,144.,4.8,0.,4.8,0.,4.8
1979-07-02 00:07:15.230 ,6,0,2.,4.8,160.,4.8,0.,4.8,0.,4.8
1979-07-02 00:07:20.030 ,6,0,1.,4.8,148.,4.8,0.,4.8,0.,4.8
1979-07-02 00:07:24.830 ,6,0,2.,4.8,136.,4.8,0.,4.8,0.,4.8
1979-07-02 00:07:29.630 ,6,0,3.,4.8,148.,4.8,0.,4.8,0.,4.8
1979-07-02 00:07:34.430 ,6,0,3.,4.8,160.,4.8,0.,4.8,0.,4.8
1979-07-02 00:07:39.230 ,6,0,3.,4.8,140.,4.8,0.,4.8,0.,4.8
1979-07-02 00:07:44.030 ,6,0,1.,4.8,144.,4.8,0.,4.8,0.,4.8
1979-07-02 00:07:48.830 ,6,0,1.,4.8,140.,4.8,0.,4.8,0.,4.8
1979-07-02 00:07:53.630 ,6,0,0.,4.8,144.,4.8,0.,4.8,0.,4.8
1979-07-02 00:07:58.430 ,6,0,1.,4.8,140.,4.8,0.,4.8,0.,4.8
1979-07-02 00:08:03.230 ,5,0,1.,4.8,156.,4.8,0.,4.8,0.,4.8
1979-07-02 00:08:08.030 ,5,0,0.,4.8,132.,4.8,0.,4.8,0.,4.8
1979-07-02 00:08:12.830 ,5,0,2.,4.8,160.,4.8,0.,4.8,0.,4.8
1979-07-02 00:08:17.630 ,5,0,1.,4.8,160.,4.8,0.,4.8,0.,4.8
1979-07-02 00:08:22.430 ,5,0,2.,4.8,172.,4.8,0.,4.8,0.,4.8
1979-07-02 00:08:27.230 ,5,0,1.,4.8,136.,4.8,0.,4.8,0.,4.8
1979-07-02 00:08:32.030 ,5,0,3.,4.8,152.,4.8,0.,4.8,0.,4.8
1979-07-02 00:08:36.830 ,5,0,0.,4.8,164.,4.8,0.,4.8,0.,4.8
1979-07-02 00:08:41.630 ,5,0,2.,4.8,140.,4.8,0.,4.8,0.,4.8
1979-07-02 00:08:46.430 ,5,0,1.,4.8,126.,4.8,0.,4.8,0.,4.8
1979-07-02 00:08:51.230 ,4,0,1.,4.8,136.,4.8,0.,4.8,0.,4.8
1979-07-02 00:08:56.030 ,4,0,2.,4.8,156.,4.8,0.,4.8,0.,4.8
1979-07-02 00:09:00.830 ,4,0,0.,4.8,132.,4.8,0.,4.8,0.,4.8
1979-07-02 00:09:05.630 ,4,0,2.,4.8,140.,4.8,0.,4.8,0.,4.8
1979-07-02 00:09:10.430 ,4,0,0.,4.8,128.,4.8,0.,4.8,1.,4.8
1979-07-02 00:09:15.230 ,4,0,2.,4.8,152.,4.8,0.,4.8,0.,4.8
1979-07-02 00:09:20.030 ,4,0,0.,4.8,152.,4.8,0.,4.8,0.,4.8
1979-07-02 00:09:24.830 ,4,0,1.,4.8,144.,4.8,0.,4.8,0.,4.8
1979-07-02 00:09:29.630 ,4,0,1.,4.8,140.,4.8,0.,4.8,0.,4.8
1979-07-02 00:09:34.430 ,4,0,2.,4.8,132.,4.8,0.,4.8,0.,4.8
1979-07-02 00:09:39.230 ,3,0,1.,4.8,160.,4.8,0.,4.8,0.,4.8
1979-07-02 00:09:44.030 ,3,0,1.,4.8,148.,4.8,0.,4.8,0.,4.8
1979-07-02 00:09:48.830 ,3,0,0.,4.8,136.,4.8,0.,4.8,0.,4.8
1979-07-02 00:09:53.630 ,3,0,2.,4.8,140.,4.8,0.,4.8,0.,4.8
1979-07-02 00:09:58.430 ,3,0,0.,4.8,152.,4.8,0.,4.8,0.,4.8
1979-07-02 00:10:03.230 ,3,0,0.,4.8,148.,4.8,0.,4.8,0.,4.8
1979-07-02 00:10:08.030 ,3,0,1.,4.8,152.,4.8,0.,4.8,0.,4.8
1979-07-02 00:10:12.830 ,3,0,2.,4.8,148.,4.8,0.,4.8,0.,4.8
1979-07-02 00:10:17.630 ,3,0,1.,4.8,126.,4.8,0.,4.8,0.,4.8
1979-07-02 00:10:22.430 ,3,0,3.,4.8,148.,4.8,0.,4.8,0.,4.8
1979-07-02 00:10:27.230 ,2,0,1.,4.8,136.,4.8,0.,4.8,0.,4.8
1979-07-02 00:10:32.030 ,2,0,1.,4.8,128.,4.8,0.,4.8,0.,4.8
1979-07-02 00:10:36.830 ,2,0,1.,4.8,128.,4.8,0.,4.8,0.,4.8
1979-07-02 00:10:41.630 ,2,0,1.,4.8,124.,4.8,0.,4.8,0.,4.8
1979-07-02 00:10:46.430 ,2,0,0.,4.8,128.,4.8,0.,4.8,0.,4.8
1979-07-02 00:10:51.230 ,2,0,0.,4.8,144.,4.8,0.,4.8,0.,4.8
1979-07-02 00:10:56.030 ,2,0,2.,4.8,148.,4.8,0.,4.8,0.,4.8
1979-07-02 00:11:00.830 ,2,0,0.,4.8,140.,4.8,0.,4.8,0.,4.8
1979-07-02 00:11:05.630 ,2,0,1.,4.8,128.,4.8,0.,4.8,0.,4.8
1979-07-02 00:11:10.430 ,2,0,2.,4.8,126.,4.8,0.,4.8,0.,4.8
1979-07-02 00:11:15.230 ,1,0,1.,4.8,132.,4.8,0.,4.8,0.,4.8
1979-07-02 00:11:20.030 ,1,0,4.,4.8,136.,4.8,0.,4.8,0.,4.8
1979-07-02 00:11:24.830 ,1,0,1.,4.8,140.,4.8,0.,4.8,0.,4.8
1979-07-02 00:11:29.630 ,1,0,0.,4.8,148.,4.8,0.,4.8,0.,4.8
1979-07-02 00:11:34.430 ,1,0,2.,4.8,160.,4.8,0.,4.8,0.,4.8
1979-07-02 00:11:39.230 ,1,0,0.,4.8,144.,4.8,0.,4.8,0.,4.8
1979-07-02 00:11:44.030 ,1,0,0.,4.8,132.,4.8,0.,4.8,0.,4.8
1979-07-02 00:11:48.830 ,1,0,4.,4.8,140.,4.8,0.,4.8,0.,4.8
1979-07-02 00:11:53.630 ,1,0,0.,4.8,140.,4.8,0.,4.8,0.,4.8
1979-07-02 00:11:58.430 ,1,0,3.,4.8,140.,4.8,0.,4.8,0.,4.8
1979-07-02 00:12:03.230 ,0,0,2.,4.8,140.,4.8,0.,4.8,0.,4.8
1979-07-02 00:12:08.030 ,0,0,1.,4.8,132.,4.8,0.,4.8,0.,4.8
1979-07-02 00:12:12.830 ,0,0,2.,4.8,152.,4.8,0.,4.8,0.,4.8
1979-07-02 00:12:17.630 ,0,0,1.,4.8,148.,4.8,0.,4.8,0.,4.8
1979-07-02 00:12:22.430 ,0,0,2.,4.8,132.,4.8,0.,4.8,1.,4.8
1979-07-02 00:12:27.230 ,0,0,1.,4.8,140.,4.8,0.,4.8,0.,4.8
1979-07-02 00:12:32.030 ,0,0,3.,4.8,136.,4.8,0.,4.8,0.,4.8
1979-07-02 00:12:36.830 ,0,0,1.,4.8,136.,4.8,0.,4.8,0.,4.8
1979-07-02 00:12:41.630 ,0,0,4.,4.8,152.,4.8,0.,4.8,0.,4.8
1979-07-02 00:12:46.430 ,0,0,2.,4.8,140.,4.8,0.,4.8,0.,4.8
1979-07-02 00:12:51.230 ,0,0,4.,4.8,120.,4.8,0.,4.8,0.,4.8
1979-07-02 00:12:56.030 ,0,0,0.,4.8,136.,4.8,0.,4.8,0.,4.8
1979-07-02 00:13:00.830 ,0,0,2.,4.8,152.,4.8,0.,4.8,0.,4.8
1979-07-02 00:13:05.630 ,0,0,4.,4.8,132.,4.8,0.,4.8,0.,4.8
1979-07-02 00:13:10.430 ,0,0,4.,4.8,120.,4.8,0.,4.8,0.,4.8
1979-07-02 00:13:15.230 ,0,0,1.,4.8,152.,4.8,0.,4.8,0.,4.8
1979-07-02 00:13:20.030 ,0,0,1.,4.8,160.,4.8,0.,4.8,0.,4.8
1979-07-02 00:13:24.830 ,0,0,1.,4.8,132.,4.8,0.,4.8,0.,4.8
1979-07-02 00:13:29.630 ,0,0,3.,4.8,168.,4.8,0.,4.8,0.,4.8
1979-07-02 00:13:34.430 ,0,0,4.,4.8,122.,4.8,0.,4.8,0.,4.8
1979-07-02 00:13:39.230 ,1,0,0.,4.8,144.,4.8,0.,4.8,0.,4.8
1979-07-02 00:13:44.030 ,1,0,0.,4.8,152.,4.8,0.,4.8,0.,4.8
1979-07-02 00:13:48.830 ,1,0,0.,4.8,132.,4.8,0.,4.8,0.,4.8
1979-07-02 00:13:53.630 ,1,0,0.,4.8,136.,4.8,0.,4.8,0.,4.8
1979-07-02 00:13:58.430 ,1,0,1.,4.8,144.,4.8,0.,4.8,0.,4.8
1979-07-02 00:14:03.230 ,1,0,1.,4.8,132.,4.8,0.,4.8,0.,4.8
1979-07-02 00:14:08.030 ,1,0,4.,4.8,164.,4.8,0.,4.8,0.,4.8
1979-07-02 00:14:12.830 ,1,0,3.,4.8,140.,4.8,0.,4.8,0.,4.8
1979-07-02 00:14:17.630 ,1,0,0.,4.8,136.,4.8,0.,4.8,0.,4.8
1979-07-02 00:14:22.430 ,1,0,2.,4.8,172.,4.8,0.,4.8,0.,4.8
1979-07-02 00:14:27.230 ,2,0,1.,4.8,156.,4.8,0.,4.8,0.,4.8
1979-07-02 00:14:32.030 ,2,0,2.,4.8,136.,4.8,0.,4.8,0.,4.8
1979-07-02 00:14:36.830 ,2,0,1.,4.8,152.,4.8,0.,4.8,0.,4.8
1979-07-02 00:14:41.630 ,2,0,3.,4.8,140.,4.8,0.,4.8,0.,4.8
1979-07-02 00:14:46.430 ,2,0,1.,4.8,144.,4.8,0.,4.8,0.,4.8
1979-07-02 00:14:51.230 ,2,0,0.,4.8,132.,4.8,0.,4.8,0.,4.8
1979-07-02 00:14:56.030 ,2,0,2.,4.8,156.,4.8,0.,4.8,0.,4.8
1979-07-02 00:15:00.830 ,2,0,3.,4.8,140.,4.8,0.,4.8,0.,4.8
1979-07-02 00:15:05.630 ,2,0,4.,4.8,144.,4.8,0.,4.8,0.,4.8
1979-07-02 00:15:10.430 ,2,0,1.,4.8,160.,4.8,0.,4.8,0.,4.8
1979-07-02 00:15:15.230 ,3,0,1.,4.8,144.,4.8,0.,4.8,0.,4.8
1979-07-02 00:15:20.030 ,3,0,1.,4.8,160.,4.8,0.,4.8,0.,4.8
1979-07-02 00:15:24.830 ,3,0,2.,4.8,164.,4.8,0.,4.8,0.,4.8
1979-07-02 00:15:29.630 ,3,0,1.,4.8,152.,4.8,0.,4.8,0.,4.8
1979-07-02 00:15:34.430 ,3,0,5.,4.8,148.,4.8,0.,4.8,0.,4.8
1979-07-02 00:15:39.230 ,3,0,0.,4.8,148.,4.8,0.,4.8,0.,4.8
1979-07-02 00:15:44.030 ,3,0,0.,4.8,148.,4.8,0.,4.8,0.,4.8
1979-07-02 00:15:48.830 ,3,0,3.,4.8,148.,4.8,0.,4.8,0.,4.8
1979-07-02 00:15:53.630 ,3,0,2.,4.8,160.,4.8,0.,4.8,0.,4.8
1979-07-02 00:15:58.430 ,3,0,1.,4.8,156.,4.8,0.,4.8,0.,4.8
1979-07-02 00:16:03.230 ,4,0,1.,4.8,168.,4.8,0.,4.8,0.,4.8
1979-07-02 00:16:08.030 ,4,0,1.,4.8,144.,4.8,0.,4.8,0.,4.8
1979-07-02 00:16:12.830 ,4,0,1.,4.8,136.,4.8,0.,4.8,0.,4.8
1979-07-02 00:16:17.630 ,4,0,1.,4.8,126.,4.8,0.,4.8,0.,4.8
1979-07-02 00:16:22.430 ,4,0,0.,4.8,144.,4.8,0.,4.8,0.,4.8
1979-07-02 00:16:27.230 ,4,0,1.,4.8,136.,4.8,0.,4.8,0.,4.8
1979-07-02 00:16:32.030 ,4,0,3.,4.8,156.,4.8,0.,4.8,0.,4.8
1979-07-02 00:16:36.830 ,4,0,1.,4.8,136.,4.8,0.,4.8,0.,4.8
1979-07-02 00:16:41.630 ,4,0,0.,4.8,148.,4.8,0.,4.8,0.,4.8
1979-07-02 00:16:46.430 ,4,0,4.,4.8,140.,4.8,0.,4.8,0.,4.8
1979-07-02 00:16:51.230 ,5,0,1.,4.8,144.,4.8,0.,4.8,0.,4.8
1979-07-02 00:16:56.030 ,5,0,1.,4.8,144.,4.8,0.,4.8,0.,4.8
1979-07-02 00:17:00.830 ,5,0,0.,4.8,148.,4.8,0.,4.8,0.,4.8
1979-07-02 00:17:05.630 ,5,0,3.,4.8,140.,4.8,0.,4.8,0.,4.8
1979-07-02 00:17:10.430 ,5,0,1.,4.8,136.,4.8,0.,4.8,0.,4.8
1979-07-02 00:17:15.230 ,5,0,1.,4.8,144.,4.8,0.,4.8,0.,4.8
1979-07-02 00:17:20.030 ,5,0,3.,4.8,160.,4.8,0.,4.8,0.,4.8
1979-07-02 00:17:24.830 ,5,0,1.,4.8,160.,4.8,0.,4.8,0.,4.8
1979-07-02 00:17:29.630 ,5,0,2.,4.8,144.,4.8,0.,4.8,0.,4.8
1979-07-02 00:17:34.430 ,5,0,2.,4.8,148.,4.8,0.,4.8,0.,4.8
1979-07-02 00:17:39.230 ,6,0,1.,4.8,152.,4.8,0.,4.8,0.,4.8
1979-07-02 00:17:44.030 ,6,0,3.,4.8,160.,4.8,0.,4.8,0.,4.8
1979-07-02 00:17:48.830 ,6,0,3.,4.8,148.,4.8,0.,4.8,0.,4.8
1979-07-02 00:17:53.630 ,6,0,1.,4.8,148.,4.8,0.,4.8,0.,4.8
1979-07-02 00:17:58.430 ,6,0,2.,4.8,160.,4.8,0.,4.8,0.,4.8
1979-07-02 00:18:03.230 ,6,0,1.,4.8,140.,4.8,0.,4.8,0.,4.8
1979-07-02 00:18:08.030 ,6,0,3.,4.8,160.,4.8,0.,4.8,0.,4.8
1979-07-02 00:18:12.830 ,6,0,2.,4.8,144.,4.8,0.,4.8,0.,4.8
1979-07-02 00:18:17.630 ,6,0,2.,4.8,168.,4.8,0.,4.8,0.,4.8
1979-07-02 00:18:22.430 ,6,0,3.,4.8,132.,4.8,0.,4.8,0.,4.8
1979-07-02 00:18:27.230 ,7,0,1.,4.8,132.,4.8,0.,4.8,0.,4.8
1979-07-02 00:18:32.030 ,7,0,0.,4.8,164.,4.8,0.,4.8,0.,4.8
1979-07-02 00:18:36.830 ,7,0,1.,4.8,140.,4.8,0.,4.8,1.,4.8
1979-07-02 00:18:41.630 ,7,0,1.,4.8,156.,4.8,0.,4.8,0.,4.8
1979-07-02 00:18:46.430 ,7,0,1.,4.8,136.,4.8,0.,4.8,0.,4.8
1979-07-02 00:18:51.230 ,7,0,1.,4.8,148.,4.8,0.,4.8,0.,4.8
1979-07-02 00:18:56.030 ,7,0,2.,4.8,140.,4.8,0.,4.8,0.,4.8
1979-07-02 00:19:00.830 ,7,0,1.,4.8,144.,4.8,0.,4.8,0.,4.8
1979-07-02 00:19:05.630 ,7,0,2.,4.8,148.,4.8,0.,4.8,0.,4.8
1979-07-02 00:19:10.430 ,7,0,1.,4.8,148.,4.8,0.,4.8,0.,4.8
1979-07-02 00:19:15.230 ,3,1,3.,4.8,144.,4.8,0.,4.8,0.,4.8
1979-07-02 00:19:20.030 ,3,1,4.,4.8,144.,4.8,0.,4.8,0.,4.8
1979-07-02 00:19:24.830 ,3,1,2.,4.8,164.,4.8,0.,4.8,0.,4.8
1979-07-02 00:19:29.630 ,3,1,1.,4.8,136.,4.8,0.,4.8,0.,4.8
1979-07-02 00:19:34.430 ,3,1,0.,4.8,136.,4.8,0.,4.8,0.,4.8
1979-07-02 00:19:39.230 ,0,1,3.,4.8,152.,4.8,0.,4.8,0.,4.8
1979-07-02 00:19:44.030 ,0,1,1.,4.8,120.,4.8,0.,4.8,0.,4.8
1979-07-02 00:19:48.830 ,0,1,0.,4.8,140.,4.8,0.,4.8,0.,4.8
1979-07-02 00:19:53.630 ,0,1,1.,4.8,152.,4.8,0.,4.8,0.,4.8
1979-07-02 00:19:58.430 ,0,1,2.,4.8,140.,4.8,0.,4.8,0.,4.8
1979-07-02 00:20:03.230 ,4,1,1.,4.8,144.,4.8,0.,4.8,0.,4.8
1979-07-02 00:20:08.030 ,4,1,3.,4.8,114.,4.8,0.,4.8,0.,4.8
1979-07-02 00:20:12.830 ,4,1,3.,4.8,148.,4.8,0.,4.8,0.,4.8
1979-07-02 00:20:17.630 ,4,1,0.,4.8,160.,4.8,0.,4.8,0.,4.8
1979-07-02 00:20:22.430 ,4,1,1.,4.8,140.,4.8,0.,4.8,0.,4.8
1979-07-02 00:20:27.230 ,7,1,2.,4.8,168.,4.8,0.,4.8,0.,4.8
1979-07-02 00:20:32.030 ,7,1,0.,4.8,132.,4.8,0.,4.8,0.,4.8
1979-07-02 00:20:36.830 ,7,1,2.,4.8,152.,4.8,0.,4.8,0.,4.8
1979-07-02 00:20:41.630 ,7,1,1.,4.8,148.,4.8,0.,4.8,0.,4.8
1979-07-02 00:20:46.430 ,7,1,1.,4.8,168.,4.8,0.,4.8,0.,4.8
1979-07-02 00:20:51.230 ,3,1,4.,4.8,164.,4.8,0.,4.8,0.,4.8
1979-07-02 00:20:56.030 ,3,1,0.,4.8,148.,4.8,0.,4.8,0.,4.8
1979-07-02 00:21:00.830 ,3,1,2.,4.8,148.,4.8,0.,4.8,0.,4.8
1979-07-02 00:21:05.630 ,3,1,1.,4.8,164.,4.8,0.,4.8,0.,4.8
1979-07-02 00:21:10.430 ,3,1,1.,4.8,144.,4.8,0.,4.8,0.,4.8
1979-07-02 00:21:15.230 ,0,1,0.,4.8,172.,4.8,0.,4.8,0.,4.8
1979-07-02 00:21:20.030 ,0,1,2.,4.8,140.,4.8,0.,4.8,0.,4.8
1979-07-02 00:21:24.830 ,0,1,3.,4.8,152.,4.8,0.,4.8,0.,4.8
1979-07-02 00:21:29.630 ,0,1,0.,4.8,152.,4.8,0.,4.8,0.,4.8
1979-07-02 00:21:34.430 ,0,1,2.,4.8,152.,4.8,0.,4.8,0.,4.8
1979-07-02 00:21:39.230 ,4,1,0.,4.8,156.,4.8,0.,4.8,0.,4.8
1979-07-02 00:21:44.030 ,4,1,2.,4.8,140.,4.8,0.,4.8,0.,4.8
1979-07-02 00:21:48.830 ,4,1,3.,4.8,152.,4.8,0.,4.8,0.,4.8
1979-07-02 00:21:53.630 ,4,1,0.,4.8,172.,4.8,0.,4.8,0.,4.8
1979-07-02 00:21:58.430 ,4,1,1.,4.8,136.,4.8,0.,4.8,0.,4.8
1979-07-02 00:22:03.230 ,7,1,0.,4.8,144.,4.8,0.,4.8,0.,4.8
1979-07-02 00:22:08.030 ,7,1,0.,4.8,144.,4.8,0.,4.8,0.,4.8
1979-07-02 00:22:12.830 ,7,1,2.,4.8,136.,4.8,0.,4.8,0.,4.8
1979-07-02 00:22:17.630 ,7,1,3.,4.8,132.,4.8,0.,4.8,0.,4.8
1979-07-02 00:22:22.430 ,7,1,1.,4.8,156.,4.8,0.,4.8,0.,4.8
1979-07-02 00:22:27.230 ,3,1,2.,4.8,136.,4.8,0.,4.8,0.,4.8
1979-07-02 00:22:32.030 ,3,1,1.,4.8,152.,4.8,0.,4.8,0.,4.8
1979-07-02 00:22:36.830 ,3,1,0.,4.8,156.,4.8,0.,4.8,0.,4.8
1979-07-02 00:22:41.630 ,3,1,1.,4.8,140.,4.8,0.,4.8,0.,4.8
1979-07-02 00:22:46.430 ,3,1,2.,4.8,136.,4.8,0.,4.8,0.,4.8
1979-07-02 00:22:51.230 ,0,1,1.,4.8,132.,4.8,0.,4.8,0.,4.8
1979-07-02 00:22:56.030 ,0,1,1.,4.8,148.,4.8,0.,4.8,0.,4.8
1979-07-02 00:23:00.830 ,0,1,0.,4.8,124.,4.8,0.,4.8,0.,4.8
1979-07-02 00:23:05.630 ,0,1,4.,4.8,144.,4.8,0.,4.8,0.,4.8
1979-07-02 00:23:10.430 ,0,1,3.,4.8,148.,4.8,0.,4.8,0.,4.8
1979-07-02 00:23:15.230 ,4,1,0.,4.8,152.,4.8,0.,4.8,0.,4.8
1979-07-02 00:23:20.030 ,4,1,2.,4.8,132.,4.8,0.,4.8,0.,4.8
1979-07-02 00:23:24.830 ,4,1,1.,4.8,156.,4.8,0.,4.8,0.,4.8
1979-07-02 00:23:29.630 ,4,1,1.,4.8,156.,4.8,0.,4.8,0.,4.8
1979-07-02 00:23:34.430 ,4,1,2.,4.8,140.,4.8,0.,4.8,0.,4.8
1979-07-02 00:23:39.230 ,7,1,1.,4.8,140.,4.8,0.,4.8,0.,4.8
1979-07-02 00:23:44.030 ,7,1,0.,4.8,140.,4.8,0.,4.8,0.,4.8
1979-07-02 00:23:48.830 ,7,1,3.,4.8,140.,4.8,0.,4.8,0.,4.8
1979-07-02 00:23:53.630 ,7,1,2.,4.8,136.,4.8,0.,4.8,0.,4.8
1979-07-02 00:23:58.430 ,7,1,0.,4.8,164.,4.8,0.,4.8,0.,4.8
1979-07-02 00:24:03.230 ,3,1,1.,4.8,152.,4.8,0.,4.8,0.,4.8
1979-07-02 00:24:08.030 ,3,1,1.,4.8,148.,4.8,0.,4.8,0.,4.8
1979-07-02 00:24:12.830 ,3,1,2.,4.8,156.,4.8,0.,4.8,0.,4.8
1979-07-02 00:24:17.630 ,3,1,1.,4.8,144.,4.8,0.,4.8,0.,4.8
1979-07-02 00:24:22.430 ,3,1,1.,4.8,140.,4.8,0.,4.8,0.,4.8
1979-07-02 00:24:27.230 ,0,1,2.,4.8,168.,4.8,0.,4.8,0.,4.8
1979-07-02 00:24:32.030 ,0,1,1.,4.8,140.,4.8,0.,4.8,0.,4.8
1979-07-02 00:24:36.830 ,0,1,2.,4.8,168.,4.8,0.,4.8,0.,4.8
1979-07-02 00:24:41.630 ,0,1,1.,4.8,156.,4.8,0.,4.8,0.,4.8
1979-07-02 00:24:46.430 ,0,1,0.,4.8,136.,4.8,0.,4.8,0.,4.8
1979-07-02 00:24:51.230 ,4,1,2.,4.8,152.,4.8,0.,4.8,0.,4.8
1979-07-02 00:24:56.030 ,4,1,0.,4.8,140.,4.8,0.,4.8,0.,4.8
1979-07-02 00:25:00.830 ,4,1,0.,4.8,144.,4.8,0.,4.8,0.,4.8
1979-07-02 00:25:05.630 ,4,1,1.,4.8,148.,4.8,0.,4.8,0.,4.8
1979-07-02 00:25:10.430 ,4,1,1.,4.8,152.,4.8,0.,4.8,0.,4.8
1979-07-02 00:25:15.230 ,7,1,0.,4.8,136.,4.8,0.,4.8,0.,4.8
1979-07-02 00:25:20.030 ,7,1,2.,4.8,152.,4.8,0.,4.8,0.,4.8
1979-07-02 00:25:24.830 ,7,1,2.,4.8,148.,4.8,0.,4.8,0.,4.8
1979-07-02 00:25:29.630 ,7,1,2.,4.8,168.,4.8,0.,4.8,0.,4.8
1979-07-02 00:25:34.430 ,7,1,0.,4.8,172.,4.8,0.,4.8,0.,4.8
1979-07-02 00:25:39.230 ,3,1,0.,4.8,124.,4.8,0.,4.8,0.,4.8
1979-07-02 00:25:44.030 ,3,1,2.,4.8,132.,4.8,0.,4.8,0.,4.8
1979-07-02 00:25:48.830 ,3,1,3.,4.8,156.,4.8,0.,4.8,0.,4.8
1979-07-02 00:25:53.630 ,3,1,1.,4.8,172.,4.8,0.,4.8,0.,4.8
1979-07-02 00:25:58.430 ,3,1,2.,4.8,140.,4.8,0.,4.8,0.,4.8
1979-07-02 00:26:03.230 ,0,1,0.,4.8,148.,4.8,0.,4.8,0.,4.8
1979-07-02 00:26:08.030 ,0,1,1.,4.8,140.,4.8,0.,4.8,0.,4.8
1979-07-02 00:26:12.830 ,0,1,0.,4.8,144.,4.8,0.,4.8,0.,4.8
1979-07-02 00:26:17.630 ,0,1,2.,4.8,140.,4.8,0.,4.8,0.,4.8
1979-07-02 00:26:22.430 ,0,1,2.,4.8,136.,4.8,0.,4.8,0.,4.8
1979-07-02 00:26:27.230 ,4,1,1.,4.8,156.,4.8,0.,4.8,0.,4.8
1979-07-02 00:26:32.030 ,4,1,0.,4.8,152.,4.8,0.,4.8,0.,4.8
1979-07-02 00:26:36.830 ,4,1,2.,4.8,152.,4.8,0.,4.8,0.,4.8
1979-07-02 00:26:41.630 ,4,1,1.,4.8,152.,4.8,0.,4.8,0.,4.8
1979-07-02 00:26:46.430 ,4,1,0.,4.8,144.,4.8,0.,4.8,0.,4.8
1979-07-02 00:26:51.230 ,7,1,3.,4.8,140.,4.8,0.,4.8,0.,4.8
1979-07-02 00:26:56.030 ,7,1,1.,4.8,128.,4.8,0.,4.8,0.,4.8
1979-07-02 00:27:00.830 ,7,1,4.,4.8,132.,4.8,0.,4.8,0.,4.8
1979-07-02 00:27:05.630 ,7,1,2.,4.8,152.,4.8,0.,4.8,0.,4.8
1979-07-02 00:27:10.430 ,7,1,1.,4.8,128.,4.8,0.,4.8,0.,4.8
1979-07-02 00:27:15.230 ,3,1,3.,4.8,152.,4.8,0.,4.8,0.,4.8
1979-07-02 00:27:20.030 ,3,1,2.,4.8,148.,4.8,0.,4.8,0.,4.8
1979-07-02 00:27:24.830 ,3,1,2.,4.8,156.,4.8,0.,4.8,0.,4.8
1979-07-02 00:27:29.630 ,3,1,0.,4.8,132.,4.8,0.,4.8,0.,4.8
1979-07-02 00:27:34.430 ,3,1,0.,4.8,148.,4.8,0.,4.8,0.,4.8
1979-07-02 00:27:39.230 ,0,1,1.,4.8,144.,4.8,0.,4.8,0.,4.8
1979-07-02 00:27:44.030 ,0,1,0.,4.8,152.,4.8,0.,4.8,0.,4.8
1979-07-02 00:27:48.830 ,0,1,2.,4.8,144.,4.8,0.,4.8,0.,4.8
1979-07-02 00:27:53.630 ,0,1,2.,4.8,132.,4.8,0.,4.8,0.,4.8
1979-07-02 00:27:58.430 ,0,1,1.,4.8,128.,4.8,0.,4.8,0.,4.8
1979-07-02 00:28:03.230 ,4,1,0.,4.8,144.,4.8,0.,4.8,0.,4.8
1979-07-02 00:28:08.030 ,4,1,1.,4.8,152.,4.8,0.,4.8,0.,4.8
1979-07-02 00:28:12.830 ,4,1,0.,4.8,132.,4.8,0.,4.8,0.,4.8
1979-07-02 00:28:17.630 ,4,1,0.,4.8,156.,4.8,0.,4.8,0.,4.8
1979-07-02 00:28:22.430 ,4,1,2.,4.8,156.,4.8,0.,4.8,0.,4.8
1979-07-02 00:28:27.230 ,7,1,0.,4.8,148.,4.8,0.,4.8,0.,4.8
1979-07-02 00:28:32.030 ,7,1,2.,4.8,128.,4.8,0.,4.8,0.,4.8
1979-07-02 00:28:36.830 ,7,1,2.,4.8,140.,4.8,0.,4.8,0.,4.8
1979-07-02 00:28:41.630 ,7,1,2.,4.8,128.,4.8,0.,4.8,0.,4.8
1979-07-02 00:28:46.430 ,7,1,3.,4.8,124.,4.8,0.,4.8,0.,4.8
1979-07-02 00:28:51.230 ,3,1,0.,4.8,140.,4.8,0.,4.8,0.,4.8
1979-07-02 00:28:56.030 ,3,1,1.,4.8,160.,4.8,0.,4.8,0.,4.8
1979-07-02 00:29:00.830 ,3,1,1.,4.8,152.,4.8,0.,4.8,0.,4.8
1979-07-02 00:29:05.630 ,3,1,1.,4.8,136.,4.8,0.,4.8,0.,4.8
1979-07-02 00:29:10.430 ,3,1,2.,4.8,126.,4.8,0.,4.8,0.,4.8
1979-07-02 00:29:15.230 ,0,1,0.,4.8,124.,4.8,0.,4.8,0.,4.8
1979-07-02 00:29:20.030 ,0,1,0.,4.8,148.,4.8,0.,4.8,0.,4.8
1979-07-02 00:29:24.830 ,0,1,3.,4.8,140.,4.8,0.,4.8,0.,4.8
1979-07-02 00:29:29.630 ,0,1,1.,4.8,164.,4.8,0.,4.8,0.,4.8
1979-07-02 00:29:34.430 ,0,1,1.,4.8,136.,4.8,0.,4.8,0.,4.8
1979-07-02 00:29:39.230 ,0,0,2.,4.8,156.,4.8,0.,4.8,0.,4.8
1979-07-02 00:29:44.030 ,0,0,0.,4.8,156.,4.8,0.,4.8,0.,4.8
1979-07-02 00:29:48.830 ,0,0,0.,4.8,144.,4.8,0.,4.8,0.,4.8
1979-07-02 00:29:53.630 ,0,0,2.,4.8,136.,4.8,0.,4.8,0.,4.8
1979-07-02 00:29:58.430 ,0,0,1.,4.8,136.,4.8,0.,4.8,0.,4.8
1979-07-02 00:30:03.230 ,0,0,0.,4.8,140.,4.8,0.,4.8,0.,4.8
1979-07-02 00:30:08.030 ,0,0,4.,4.8,152.,4.8,0.,4.8,0.,4.8
1979-07-02 00:30:12.830 ,0,0,1.,4.8,140.,4.8,0.,4.8,0.,4.8
1979-07-02 00:30:17.630 ,0,0,3.,4.8,122.,4.8,0.,4.8,0.,4.8
1979-07-02 00:30:22.430 ,0,0,1.,4.8,144.,4.8,0.,4.8,0.,4.8
1979-07-02 00:30:27.230 ,5,0,2.,4.8,126.,4.8,0.,4.8,0.,4.8
1979-07-02 00:30:32.030 ,5,0,0.,4.8,136.,4.8,0.,4.8,0.,4.8
1979-07-02 00:30:36.830 ,5,0,1.,4.8,136.,4.8,0.,4.8,0.,4.8
1979-07-02 00:30:41.630 ,5,0,4.,4.8,136.,4.8,0.,4.8,0.,4.8
1979-07-02 00:30:46.430 ,5,0,0.,4.8,126.,4.8,0.,4.8,0.,4.8
1979-07-02 00:30:51.230 ,5,0,1.,4.8,148.,4.8,0.,4.8,0.,4.8
1979-07-02 00:30:56.030 ,5,0,1.,4.8,144.,4.8,0.,4.8,0.,4.8
1979-07-02 00:31:00.830 ,5,0,0.,4.8,144.,4.8,0.,4.8,0.,4.8
1979-07-02 00:31:05.630 ,5,0,1.,4.8,140.,4.8,0.,4.8,0.,4.8
1979-07-02 00:31:10.430 ,5,0,1.,4.8,144.,4.8,0.,4.8,0.,4.8
1979-07-02 00:31:15.230 ,4,0,0.,4.8,136.,4.8,0.,4.8,0.,4.8
1979-07-02 00:31:20.030 ,4,0,1.,4.8,124.,4.8,0.,4.8,0.,4.8
1979-07-02 00:31:24.830 ,4,0,1.,4.8,152.,4.8,0.,4.8,1.,4.8
1979-07-02 00:31:29.630 ,4,0,0.,4.8,156.,4.8,0.,4.8,0.,4.8
1979-07-02 00:31:34.430 ,4,0,0.,4.8,148.,4.8,0.,4.8,0.,4.8
1979-07-02 00:31:39.230 ,4,0,1.,4.8,156.,4.8,0.,4.8,0.,4.8
1979-07-02 00:31:44.030 ,4,0,1.,4.8,152.,4.8,0.,4.8,0.,4.8
1979-07-02 00:31:48.830 ,4,0,2.,4.8,140.,4.8,0.,4.8,0.,4.8
1979-07-02 00:31:53.630 ,4,0,1.,4.8,148.,4.8,0.,4.8,0.,4.8
1979-07-02 00:31:58.430 ,4,0,0.,4.8,144.,4.8,0.,4.8,0.,4.8
1979-07-02 00:32:03.230 ,3,0,0.,4.8,144.,4.8,0.,4.8,0.,4.8
1979-07-02 00:32:08.030 ,3,0,0.,4.8,132.,4.8,0.,4.8,0.,4.8
1979-07-02 00:32:12.830 ,3,0,0.,4.8,132.,4.8,0.,4.8,0.,4.8